When you browse on this site, cookies collect data to enhance your experience and personalize the content and advertising you see.
Visit our Privacy Policy to learn more. By continuing to use the site, you agree to this use of cookies and data.
  • In Lithuania
  • List of Countries
  • For 7 days
  • Water Temperature
  • Weather Map
  • Weather Widgets
  • user-avatar
    Login

    Hourly Weather Shaki

    Today, 20 August, Tuesday

    Time Temperature Precipitation Wind Pressure Humidity
    00:00 +27°C° 0 mm 2 mps 737 mmHg 31%
    01:00 +26°C° 0 mm 1 mps 737 mmHg 32%
    02:00 +26°C° 0 mm 1 mps 737 mmHg 33%
    03:00 +25°C° 0 mm 1 mps 737 mmHg 34%
    04:00 +26°C° 0 mm 1 mps 737 mmHg 34%
    05:00 +26°C° 0 mm 1 mps 737 mmHg 34%
    06:00 +24°C° 0 mm 0 mps 738 mmHg 35%
    07:00 +28°C° 0 mm 1 mps 738 mmHg 30%
    08:00 +31°C° 0 mm 1 mps 738 mmHg 25%
    09:00 +33°C° 0 mm 1 mps 738 mmHg 20%
    10:00 +36°C° 0 mm 2 mps 738 mmHg 18%
    11:00 +37°C° 0 mm 3 mps 738 mmHg 17%
    12:00 +38°C° 0 mm 3 mps 737 mmHg 15%
    13:00 +39°C° 0 mm 3 mps 737 mmHg 14%
    14:00 +40°C° 0 mm 4 mps 737 mmHg 13%
    15:00 +41°C° 0 mm 4 mps 736 mmHg 13%
    16:00 +39°C° 0 mm 3 mps 736 mmHg 14%
    17:00 +37°C° 0 mm 3 mps 736 mmHg 16%
    18:00 +36°C° 0 mm 3 mps 736 mmHg 17%
    19:00 +34°C° 0 mm 3 mps 736 mmHg 19%
    20:00 +30°C° 0 mm 3 mps 736 mmHg 22%
    21:00 +28°C° 0 mm 4 mps 737 mmHg 24%
    22:00 +27°C° 0 mm 3 mps 736 mmHg 26%
    23:00 +27°C° 0 mm 2 mps 736 mmHg 28%

    Tomorrow, 21 August, Wednesday

    Time Temperature Precipitation Wind Pressure Humidity
    00:00 +26°C° 0 mm 2 mps 736 mmHg 30%
    01:00 +26°C° 0 mm 2 mps 736 mmHg 30%
    02:00 +25°C° 0 mm 1 mps 736 mmHg 30%
    03:00 +25°C° 0 mm 1 mps 736 mmHg 31%
    04:00 +25°C° 0 mm 1 mps 736 mmHg 32%
    05:00 +25°C° 0 mm 1 mps 736 mmHg 33%
    06:00 +25°C° 0 mm 1 mps 736 mmHg 34%
    07:00 +27°C° 0 mm 1 mps 736 mmHg 30%
    08:00 +30°C° 0 mm 1 mps 736 mmHg 26%
    09:00 +32°C° 0 mm 1 mps 736 mmHg 21%
    10:00 +35°C° 0 mm 2 mps 736 mmHg 20%
    11:00 +36°C° 0 mm 2 mps 735 mmHg 18%
    12:00 +37°C° 0 mm 3 mps 735 mmHg 17%
    13:00 +38°C° 0 mm 3 mps 735 mmHg 16%
    14:00 +39°C° 0 mm 3 mps 734 mmHg 15%
    15:00 +39°C° 0 mm 3 mps 734 mmHg 14%
    16:00 +38°C° 0 mm 3 mps 734 mmHg 15%
    17:00 +37°C° 0 mm 3 mps 734 mmHg 16%
    18:00 +36°C° 0 mm 3 mps 734 mmHg 18%
    19:00 +34°C° 0 mm 3 mps 734 mmHg 19%
    20:00 +31°C° 0 mm 3 mps 734 mmHg 21%
    21:00 +29°C° 0 mm 3 mps 734 mmHg 22%
    22:00 +28°C° 0 mm 3 mps 734 mmHg 24%
    23:00 +27°C° 0 mm 3 mps 734 mmHg 26%

    Day after tomorrow, 22 August, Thursday

    Time Temperature Precipitation Wind Pressure Humidity
    00:00 +26°C° 0 mm 2 mps 734 mmHg 28%
    01:00 +26°C° 0 mm 2 mps 734 mmHg 28%
    02:00 +26°C° 0 mm 1 mps 734 mmHg 29%
    03:00 +25°C° 0 mm 1 mps 733 mmHg 30%
    04:00 +25°C° 0 mm 1 mps 734 mmHg 31%
    05:00 +25°C° 0 mm 1 mps 734 mmHg 32%
    06:00 +23°C° 0 mm 0 mps 734 mmHg 33%
    07:00 +28°C° 0 mm 1 mps 734 mmHg 29%
    08:00 +30°C° 0 mm 1 mps 734 mmHg 25%
    09:00 +34°C° 0 mm 2 mps 734 mmHg 21%
    10:00 +35°C° 0 mm 2 mps 733 mmHg 19%
    11:00 +37°C° 0 mm 3 mps 733 mmHg 18%
    12:00 +38°C° 0 mm 4 mps 733 mmHg 16%
    13:00 +40°C° 0 mm 5 mps 733 mmHg 14%
    14:00 +40°C° 0 mm 5 mps 732 mmHg 13%
    15:00 +41°C° 0 mm 6 mps 732 mmHg 12%
    16:00 +40°C° 0 mm 5 mps 732 mmHg 14%
    17:00 +37°C° 0 mm 5 mps 732 mmHg 16%
    18:00 +36°C° 0 mm 5 mps 732 mmHg 18%
    19:00 +34°C° 0 mm 4 mps 732 mmHg 21%
    20:00 +32°C° 0 mm 4 mps 733 mmHg 24%
    21:00 +29°C° 0 mm 3 mps 733 mmHg 27%
    22:00 +28°C° 0 mm 3 mps 733 mmHg 29%
    23:00 +28°C° 0 mm 3 mps 733 mmHg 31%

    23 August, Friday

    Time Temperature Precipitation Wind Pressure Humidity
    00:00 +27°C° 0 mm 2 mps 733 mmHg 32%
    01:00 +26°C° 0 mm 2 mps 733 mmHg 34%
    02:00 +26°C° 0 mm 2 mps 733 mmHg 35%
    03:00 +25°C° 0 mm 1 mps 733 mmHg 36%
    04:00 +25°C° 0 mm 1 mps 733 mmHg 35%
    05:00 +26°C° 0 mm 1 mps 733 mmHg 34%
    06:00 +26°C° 0 mm 1 mps 733 mmHg 32%
    07:00 +28°C° 0 mm 1 mps 733 mmHg 29%
    08:00 +31°C° 0 mm 1 mps 733 mmHg 26%
    09:00 +34°C° 0 mm 2 mps 733 mmHg 22%
    10:00 +36°C° 0 mm 3 mps 733 mmHg 20%
    11:00 +38°C° 0 mm 4 mps 733 mmHg 19%
    12:00 +41°C° 0 mm 6 mps 733 mmHg 17%
    13:00 +41°C° 0 mm 6 mps 733 mmHg 17%
    14:00 +41°C° 0 mm 7 mps 732 mmHg 16%
    15:00 +41°C° 0 mm 7 mps 732 mmHg 16%
    16:00 +40°C° 0 mm 6 mps 732 mmHg 18%
    17:00 +39°C° 0 mm 5 mps 732 mmHg 20%
    18:00 +37°C° 0 mm 4 mps 732 mmHg 22%
    19:00 +35°C° 0 mm 4 mps 733 mmHg 24%
    20:00 +33°C° 0 mm 4 mps 733 mmHg 26%
    21:00 +30°C° 0 mm 3 mps 733 mmHg 27%
    22:00 +29°C° 0 mm 3 mps 733 mmHg 29%
    23:00 +28°C° 0 mm 2 mps 733 mmHg 30%

    24 August, Saturday

    Time Temperature Precipitation Wind Pressure Humidity
    00:00 +27°C° 0 mm 2 mps 733 mmHg 31%
    01:00 +27°C° 0 mm 2 mps 733 mmHg 32%
    02:00 +26°C° 0 mm 1 mps 733 mmHg 33%
    03:00 +26°C° 0 mm 1 mps 733 mmHg 33%
    04:00 +26°C° 0 mm 1 mps 733 mmHg 34%
    05:00 +26°C° 0 mm 1 mps 733 mmHg 35%
    06:00 +26°C° 0 mm 1 mps 734 mmHg 36%
    07:00 +29°C° 0 mm 1 mps 734 mmHg 32%
    08:00 +31°C° 0 mm 1 mps 734 mmHg 29%
    09:00 +34°C° 0 mm 2 mps 734 mmHg 26%
    10:00 +36°C° 0 mm 3 mps 734 mmHg 23%
    11:00 +38°C° 0 mm 4 mps 734 mmHg 21%
    12:00 +40°C° 0 mm 5 mps 733 mmHg 18%
    13:00 +41°C° 0 mm 5 mps 733 mmHg 18%
    14:00 +41°C° 0 mm 5 mps 733 mmHg 17%
    15:00 +41°C° 0 mm 6 mps 733 mmHg 17%
    16:00 +40°C° 0 mm 5 mps 733 mmHg 19%
    17:00 +38°C° 0 mm 4 mps 733 mmHg 21%
    18:00 +37°C° 0 mm 4 mps 733 mmHg 23%
    19:00 +34°C° 0 mm 4 mps 733 mmHg 26%
    20:00 +32°C° 0 mm 4 mps 734 mmHg 29%
    21:00 +29°C° 0 mm 4 mps 734 mmHg 31%
    22:00 +28°C° 0 mm 3 mps 735 mmHg 33%
    23:00 +27°C° 0 mm 3 mps 735 mmHg 34%

    25 August, Sunday

    Time Temperature Precipitation Wind Pressure Humidity
    00:00 +27°C° 0 mm 2 mps 735 mmHg 36%
    01:00 +27°C° 0 mm 2 mps 735 mmHg 34%
    02:00 +27°C° 0 mm 1 mps 735 mmHg 33%
    03:00 +27°C° 0 mm 1 mps 735 mmHg 32%
    04:00 +27°C° 0 mm 1 mps 735 mmHg 33%
    05:00 +28°C° 0 mm 1 mps 736 mmHg 33%
    06:00 +28°C° 0 mm 1 mps 736 mmHg 33%
    07:00 +29°C° 0 mm 1 mps 736 mmHg 31%
    08:00 +30°C° 0 mm 1 mps 736 mmHg 28%
    09:00 +31°C° 0 mm 1 mps 737 mmHg 26%
    10:00 +34°C° 0 mm 2 mps 736 mmHg 24%
    11:00 +35°C° 0 mm 2 mps 736 mmHg 22%
    12:00 +36°C° 0 mm 2 mps 736 mmHg 21%
    13:00 +37°C° 0 mm 2 mps 736 mmHg 19%
    14:00 +37°C° 0 mm 3 mps 736 mmHg 17%
    15:00 +38°C° 0 mm 3 mps 735 mmHg 15%
    16:00 +37°C° 0 mm 3 mps 735 mmHg 17%
    17:00 +36°C° 0 mm 3 mps 735 mmHg 18%
    18:00 +35°C° 0 mm 2 mps 736 mmHg 20%
    19:00 +33°C° 0 mm 3 mps 736 mmHg 22%
    20:00 +30°C° 0 mm 3 mps 737 mmHg 25%
    21:00 +28°C° 0 mm 3 mps 737 mmHg 27%
    22:00 +27°C° 0 mm 3 mps 737 mmHg 28%
    23:00 +26°C° 0 mm 2 mps 737 mmHg 29%
    Show more